GFSNIL_prec_precacc24_036.txt.gz
Total_Precipitation_Accumulation
0.00 0.00 0.00 0.00 0.00 0.00 0.00 0.00 0.00 0.00 0.00 0.00 0.00 0.00 0.00 0.01 0.02 0.03 0.04 0.03 0.03 0.01
0.00 0.00 0.00 0.00 0.00 0.00 0.00 0.00 0.00 0.00 0.00 0.00 0.00 0.00 0.00 0.01 0.02 0.02 0.03 0.03 0.03 0.04
0.00 0.00 0.00 0.00 0.00 0.00 0.00 0.00 0.00 0.00 0.00 0.00 0.00 0.00 0.01 0.01 0.02 0.04 0.04 0.04 0.04 0.03
0.00 0.00 0.00 0.00 0.00 0.00 0.00 0.00 0.00 0.00 0.00 0.00 0.00 0.00 0.02 0.04 0.04 0.02 0.01 0.01 0.02 0.02
0.00 0.00 0.00 0.00 0.00 0.00 0.00 0.00 0.00 0.00 0.00 0.00 0.01 0.02 0.03 0.01 0.00 0.00 0.00 0.00 0.01 0.00
0.00 0.00 0.00 0.00 0.00 0.00 0.00 0.00 0.00 0.00 0.01 0.01 0.01 0.01 0.00 0.00 0.00 0.00 0.00 0.00 0.00 0.00
0.01 0.00 0.00 0.00 0.01 0.01 0.02 0.01 0.00 0.00 0.00 0.00 0.00 0.00 0.00 0.00 0.00 0.00 0.00 0.00 0.00 0.00
0.00 0.01 0.02 0.02 0.03 0.06 0.02 0.00 0.00 0.00 0.00 0.00 0.00 0.00 0.00 0.00 0.00 0.00 0.00 0.00 0.00 0.00
0.01 0.02 0.03 0.04 0.05 0.01 0.01 0.01 0.00 0.00 0.00 0.00 0.00 0.00 0.00 0.00 0.00 0.00 0.00 0.00 0.00 0.00
0.01 0.01 0.01 0.02 0.03 0.03 0.03 0.01 0.00 0.00 0.00 0.00 0.00 0.00 0.00 0.00 0.00 0.00 0.00 0.00 0.00 0.00
0.01 0.01 0.02 0.05 0.04 0.02 0.00 0.00 0.00 0.00 0.00 0.00 0.00 0.00 0.00 0.00 0.00 0.00 0.00 0.00 0.00 0.00
0.01 0.02 0.02 0.02 0.05 0.02 0.00 0.00 0.00 0.00 0.00 0.01 0.00 0.00 0.00 0.00 0.00 0.00 0.00 0.00 0.00 0.00
0.01 0.03 0.08 0.10 0.02 0.00 0.00 0.00 0.00 0.00 0.00 0.00 0.00 0.00 0.00 0.00 0.01 0.00 0.00 0.00 0.00 0.00
0.01 0.05 0.02 0.00 0.00 0.00 0.00 0.00 0.00 0.00 0.00 0.00 0.00 0.00 0.00 0.01 0.01 0.01 0.01 0.00 0.00 0.01

GFSNIL_prec_precacc24_042.txt.gz
Total_Precipitation_Accumulation
0.00 0.00 0.00 0.00 0.00 0.00 0.00 0.00 0.00 0.00 0.00 0.00 0.00 0.00 0.00 0.01 0.02 0.03 0.04 0.03 0.02 0.01
0.00 0.00 0.00 0.00 0.00 0.00 0.00 0.00 0.00 0.00 0.00 0.00 0.00 0.00 0.00 0.01 0.02 0.02 0.03 0.02 0.02 0.03
0.01 0.00 0.01 0.01 0.00 0.00 0.00 0.00 0.00 0.00 0.00 0.00 0.00 0.00 0.01 0.01 0.02 0.04 0.04 0.03 0.02 0.02
0.01 0.00 0.00 0.00 0.00 0.00 0.00 0.00 0.00 0.00 0.00 0.00 0.00 0.00 0.02 0.04 0.03 0.02 0.01 0.00 0.01 0.01
0.00 0.00 0.00 0.00 0.00 0.00 0.00 0.00 0.00 0.00 0.00 0.00 0.01 0.02 0.03 0.01 0.00 0.00 0.00 0.00 0.00 0.00
0.00 0.00 0.00 0.00 0.00 0.00 0.00 0.00 0.00 0.00 0.01 0.01 0.01 0.01 0.00 0.00 0.00 0.00 0.00 0.00 0.00 0.00
0.00 0.00 0.00 0.00 0.00 0.00 0.00 0.00 0.00 0.00 0.00 0.00 0.00 0.00 0.00 0.00 0.00 0.00 0.00 0.00 0.00 0.00
0.00 0.00 0.00 0.00 0.00 0.00 0.00 0.00 0.00 0.00 0.00 0.00 0.00 0.00 0.00 0.00 0.00 0.00 0.00 0.00 0.00 0.00
0.00 0.00 0.00 0.00 0.00 0.00 0.00 0.01 0.00 0.00 0.00 0.00 0.00 0.00 0.00 0.00 0.00 0.00 0.00 0.00 0.00 0.00
0.00 0.00 0.00 0.00 0.00 0.00 0.00 0.00 0.00 0.00 0.00 0.00 0.00 0.00 0.00 0.00 0.00 0.00 0.00 0.00 0.00 0.00
0.00 0.00 0.00 0.00 0.01 0.01 0.00 0.00 0.00 0.00 0.00 0.00 0.00 0.00 0.00 0.00 0.00 0.00 0.00 0.00 0.00 0.00
0.00 0.01 0.03 0.05 0.02 0.00 0.00 0.00 0.00 0.00 0.00 0.01 0.00 0.00 0.00 0.00 0.00 0.00 0.00 0.00 0.00 0.00
0.03 0.05 0.03 0.01 0.00 0.00 0.00 0.00 0.00 0.00 0.00 0.00 0.00 0.00 0.00 0.00 0.00 0.00 0.00 0.00 0.00 0.00
0.03 0.01 0.00 0.00 0.00 0.00 0.00 0.00 0.00 0.00 0.00 0.00 0.00 0.00 0.00 0.00 0.00 0.00 0.00 0.00 0.00 0.00

GFSNIL_prec_precacc24_048.txt.gz
Total_Precipitation_Accumulation
0.10 0.10 0.07 0.04 0.00 0.00 0.00 0.00 0.01 0.01 0.03 0.04 0.03 0.01 0.01 0.01 0.02 0.03 0.04 0.03 0.02 0.01
0.18 0.17 0.14 0.08 0.03 0.02 0.01 0.01 0.08 0.12 0.05 0.00 0.01 0.01 0.00 0.01 0.02 0.02 0.03 0.02 0.02 0.03
0.14 0.13 0.11 0.10 0.07 0.04 0.03 0.05 0.05 0.01 0.01 0.02 0.01 0.00 0.01 0.01 0.02 0.04 0.04 0.03 0.02 0.02
0.10 0.10 0.09 0.09 0.06 0.03 0.01 0.01 0.02 0.02 0.01 0.00 0.00 0.00 0.02 0.04 0.03 0.02 0.01 0.00 0.01 0.01
0.12 0.09 0.06 0.04 0.03 0.02 0.01 0.01 0.02 0.02 0.00 0.00 0.01 0.02 0.03 0.01 0.00 0.00 0.00 0.00 0.00 0.00
0.08 0.05 0.03 0.02 0.02 0.01 0.00 0.00 0.00 0.00 0.01 0.01 0.01 0.01 0.00 0.00 0.00 0.00 0.00 0.00 0.00 0.00
0.06 0.03 0.02 0.01 0.00 0.00 0.00 0.01 0.01 0.01 0.00 0.01 0.01 0.00 0.00 0.00 0.00 0.00 0.00 0.00 0.00 0.00
0.03 0.01 0.00 0.00 0.00 0.00 0.01 0.00 0.00 0.01 0.04 0.02 0.00 0.00 0.00 0.00 0.00 0.00 0.00 0.00 0.00 0.00
0.01 0.00 0.00 0.00 0.00 0.00 0.00 0.01 0.06 0.07 0.03 0.01 0.00 0.00 0.00 0.00 0.00 0.00 0.00 0.00 0.00 0.00
0.00 0.00 0.00 0.00 0.00 0.02 0.08 0.12 0.07 0.02 0.00 0.00 0.00 0.00 0.00 0.00 0.00 0.00 0.00 0.00 0.00 0.00
0.00 0.00 0.00 0.03 0.10 0.14 0.12 0.06 0.01 0.00 0.00 0.00 0.00 0.00 0.00 0.00 0.00 0.00 0.00 0.00 0.00 0.00
0.00 0.02 0.09 0.18 0.17 0.10 0.03 0.00 0.00 0.00 0.00 0.01 0.00 0.00 0.00 0.00 0.00 0.00 0.00 0.00 0.00 0.00
0.11 0.23 0.20 0.10 0.02 0.00 0.00 0.00 0.00 0.00 0.00 0.00 0.00 0.00 0.00 0.00 0.00 0.00 0.00 0.00 0.00 0.00
0.13 0.03 0.00 0.00 0.00 0.00 0.00 0.00 0.00 0.00 0.00 0.00 0.00 0.00 0.00 0.00 0.00 0.00 0.00 0.00 0.00 0.00

GFSNIL_prec_precacc24_051.txt.gz
Total_Precipitation_Accumulation
0.13 0.14 0.17 0.18 0.09 0.03 0.02 0.01 0.01 0.02 0.05 0.06 0.03 0.01 0.01 0.01 0.02 0.03 0.04 0.03 0.02 0.01
0.24 0.27 0.27 0.22 0.16 0.11 0.04 0.02 0.08 0.14 0.06 0.00 0.01 0.01 0.01 0.01 0.02 0.02 0.03 0.02 0.02 0.03
0.19 0.23 0.24 0.23 0.19 0.12 0.08 0.07 0.06 0.02 0.02 0.02 0.01 0.01 0.01 0.01 0.02 0.04 0.04 0.03 0.02 0.02
0.16 0.19 0.20 0.20 0.15 0.09 0.05 0.03 0.03 0.03 0.03 0.05 0.06 0.04 0.02 0.04 0.04 0.02 0.01 0.00 0.01 0.01
0.25 0.22 0.17 0.12 0.08 0.05 0.03 0.02 0.03 0.04 0.03 0.01 0.01 0.02 0.04 0.03 0.00 0.00 0.00 0.00 0.00 0.00
0.17 0.14 0.11 0.07 0.03 0.01 0.00 0.00 0.00 0.01 0.02 0.03 0.03 0.03 0.01 0.00 0.00 0.00 0.00 0.00 0.00 0.00
0.14 0.10 0.05 0.02 0.00 0.00 0.00 0.01 0.01 0.02 0.02 0.03 0.02 0.00 0.00 0.00 0.00 0.00 0.00 0.00 0.00 0.00
0.05 0.02 0.01 0.00 0.00 0.00 0.01 0.01 0.00 0.02 0.05 0.03 0.01 0.00 0.00 0.00 0.00 0.00 0.00 0.00 0.00 0.00
0.01 0.00 0.00 0.00 0.00 0.00 0.00 0.02 0.07 0.09 0.05 0.03 0.01 0.00 0.00 0.00 0.00 0.00 0.00 0.00 0.00 0.00
0.00 0.00 0.00 0.00 0.00 0.03 0.10 0.15 0.13 0.12 0.08 0.03 0.01 0.00 0.00 0.00 0.00 0.00 0.00 0.00 0.00 0.00
0.00 0.00 0.00 0.04 0.11 0.17 0.17 0.16 0.10 0.03 0.00 0.00 0.00 0.00 0.00 0.00 0.00 0.00 0.00 0.00 0.00 0.00
0.00 0.02 0.10 0.20 0.21 0.15 0.07 0.01 0.00 0.00 0.00 0.01 0.00 0.00 0.00 0.00 0.00 0.00 0.00 0.00 0.00 0.00
0.11 0.23 0.21 0.11 0.02 0.00 0.00 0.00 0.00 0.00 0.00 0.00 0.00 0.00 0.00 0.00 0.00 0.00 0.00 0.00 0.00 0.00
0.13 0.03 0.00 0.00 0.00 0.00 0.00 0.00 0.00 0.00 0.00 0.00 0.00 0.00 0.00 0.00 0.00 0.00 0.00 0.00 0.00 0.00

GFSNIL_prec_precacc24_054.txt.gz
Total_Precipitation_Accumulation
0.16 0.17 0.18 0.19 0.13 0.08 0.08 0.10 0.05 0.02 0.06 0.06 0.04 0.01 0.01 0.00 0.01 0.02 0.04 0.03 0.02 0.01
0.30 0.33 0.29 0.25 0.20 0.16 0.10 0.08 0.13 0.17 0.09 0.01 0.01 0.01 0.01 0.02 0.02 0.03 0.03 0.03 0.02 0.03
0.21 0.26 0.26 0.26 0.24 0.18 0.14 0.11 0.11 0.12 0.09 0.04 0.03 0.05 0.05 0.04 0.03 0.06 0.06 0.04 0.02 0.02
0.19 0.23 0.24 0.25 0.21 0.15 0.09 0.06 0.06 0.05 0.04 0.06 0.08 0.09 0.05 0.04 0.05 0.04 0.01 0.00 0.01 0.01
0.27 0.27 0.22 0.17 0.13 0.08 0.05 0.03 0.03 0.05 0.03 0.03 0.03 0.03 0.06 0.06 0.03 0.00 0.00 0.00 0.00 0.00
0.19 0.18 0.16 0.11 0.06 0.02 0.00 0.00 0.00 0.01 0.02 0.04 0.05 0.09 0.08 0.03 0.01 0.00 0.00 0.00 0.00 0.00
0.15 0.12 0.07 0.04 0.01 0.01 0.01 0.01 0.01 0.02 0.02 0.04 0.06 0.05 0.03 0.01 0.00 0.00 0.00 0.00 0.00 0.00
0.05 0.02 0.01 0.00 0.00 0.01 0.01 0.01 0.00 0.02 0.07 0.06 0.03 0.02 0.00 0.00 0.00 0.00 0.00 0.00 0.00 0.00
0.01 0.00 0.00 0.00 0.00 0.00 0.00 0.02 0.07 0.10 0.07 0.06 0.03 0.02 0.00 0.00 0.00 0.00 0.00 0.00 0.00 0.00
0.00 0.00 0.00 0.00 0.00 0.03 0.11 0.16 0.15 0.14 0.10 0.04 0.01 0.00 0.00 0.00 0.00 0.00 0.00 0.00 0.00 0.00
0.00 0.00 0.00 0.04 0.12 0.19 0.19 0.17 0.11 0.03 0.01 0.01 0.00 0.00 0.00 0.00 0.00 0.00 0.00 0.00 0.00 0.00
0.00 0.02 0.10 0.20 0.21 0.15 0.07 0.01 0.00 0.00 0.00 0.01 0.00 0.00 0.00 0.00 0.00 0.00 0.00 0.00 0.00 0.00
0.11 0.23 0.21 0.11 0.02 0.00 0.00 0.00 0.00 0.00 0.00 0.00 0.00 0.00 0.00 0.00 0.00 0.00 0.00 0.00 0.00 0.00
0.13 0.03 0.00 0.00 0.00 0.00 0.00 0.00 0.00 0.00 0.00 0.00 0.00 0.00 0.00 0.00 0.00 0.00 0.00 0.00 0.00 0.00

GFSNIL_prec_precacc24_057.txt.gz
Total_Precipitation_Accumulation
0.19 0.19 0.18 0.19 0.13 0.08 0.08 0.12 0.21 0.27 0.25 0.20 0.12 0.04 0.05 0.04 0.00 0.01 0.01 0.02 0.02 0.01
0.32 0.34 0.30 0.25 0.21 0.17 0.12 0.09 0.17 0.25 0.18 0.15 0.17 0.11 0.06 0.03 0.02 0.02 0.02 0.04 0.04 0.02
0.24 0.29 0.28 0.29 0.29 0.22 0.16 0.13 0.13 0.14 0.18 0.16 0.11 0.08 0.07 0.04 0.03 0.04 0.07 0.05 0.01 0.01
0.25 0.24 0.25 0.27 0.23 0.15 0.09 0.07 0.07 0.07 0.08 0.09 0.11 0.11 0.08 0.06 0.05 0.06 0.03 0.00 0.01 0.00
0.29 0.29 0.24 0.18 0.13 0.09 0.05 0.03 0.04 0.06 0.05 0.04 0.05 0.06 0.06 0.07 0.06 0.03 0.01 0.00 0.00 0.00
0.21 0.19 0.16 0.11 0.06 0.03 0.01 0.02 0.02 0.02 0.03 0.04 0.05 0.10 0.10 0.06 0.04 0.01 0.00 0.00 0.00 0.00
0.17 0.13 0.07 0.04 0.01 0.01 0.01 0.01 0.02 0.02 0.03 0.06 0.08 0.07 0.05 0.03 0.01 0.00 0.00 0.00 0.00 0.00
0.06 0.03 0.01 0.00 0.00 0.01 0.01 0.01 0.00 0.02 0.07 0.06 0.04 0.04 0.02 0.01 0.00 0.00 0.00 0.00 0.00 0.00
0.01 0.00 0.00 0.00 0.00 0.00 0.00 0.02 0.07 0.10 0.08 0.06 0.03 0.02 0.00 0.00 0.00 0.00 0.00 0.00 0.00 0.00
0.00 0.00 0.00 0.00 0.00 0.03 0.11 0.16 0.15 0.14 0.10 0.04 0.01 0.01 0.00 0.00 0.00 0.00 0.00 0.00 0.00 0.00
0.00 0.00 0.00 0.04 0.12 0.19 0.19 0.17 0.11 0.03 0.00 0.00 0.00 0.00 0.00 0.00 0.00 0.00 0.00 0.00 0.00 0.00
0.00 0.02 0.10 0.20 0.21 0.15 0.07 0.01 0.00 0.00 0.00 0.00 0.00 0.00 0.00 0.00 0.00 0.00 0.00 0.00 0.00 0.00
0.11 0.23 0.21 0.11 0.02 0.00 0.00 0.00 0.00 0.00 0.00 0.00 0.00 0.00 0.00 0.00 0.00 0.00 0.00 0.00 0.00 0.00
0.13 0.03 0.00 0.00 0.00 0.00 0.00 0.00 0.00 0.00 0.00 0.00 0.00 0.00 0.00 0.00 0.00 0.00 0.00 0.00 0.00 0.00

GFSNIL_prec_precacc24_060.txt.gz
Total_Precipitation_Accumulation
0.24 0.27 0.36 0.29 0.26 0.16 0.16 0.17 0.27 0.30 0.26 0.21 0.17 0.16 0.20 0.27 0.30 0.22 0.09 0.01 0.01 0.01
0.34 0.36 0.30 0.27 0.29 0.27 0.18 0.12 0.21 0.27 0.19 0.17 0.20 0.21 0.21 0.17 0.11 0.05 0.05 0.06 0.08 0.04
0.26 0.33 0.33 0.52 0.44 0.34 0.21 0.18 0.16 0.15 0.18 0.16 0.13 0.13 0.12 0.07 0.05 0.06 0.09 0.08 0.04 0.02
0.32 0.50 0.54 0.36 0.31 0.24 0.15 0.08 0.07 0.07 0.09 0.12 0.15 0.15 0.11 0.08 0.07 0.07 0.04 0.03 0.01 0.00
0.54 0.40 0.32 0.24 0.18 0.12 0.06 0.04 0.05 0.07 0.07 0.08 0.11 0.10 0.08 0.08 0.06 0.03 0.01 0.00 0.00 0.00
0.43 0.23 0.20 0.15 0.09 0.04 0.03 0.03 0.03 0.03 0.03 0.05 0.06 0.10 0.11 0.07 0.04 0.01 0.00 0.00 0.00 0.00
0.18 0.17 0.10 0.06 0.04 0.02 0.02 0.02 0.02 0.02 0.03 0.06 0.08 0.07 0.06 0.03 0.01 0.00 0.00 0.00 0.00 0.00
0.07 0.06 0.02 0.01 0.01 0.01 0.01 0.01 0.00 0.02 0.07 0.06 0.04 0.04 0.03 0.01 0.00 0.00 0.00 0.00 0.00 0.00
0.03 0.01 0.00 0.00 0.00 0.00 0.00 0.02 0.07 0.10 0.08 0.06 0.04 0.03 0.01 0.00 0.00 0.00 0.00 0.00 0.00 0.00
0.00 0.00 0.00 0.00 0.00 0.03 0.11 0.16 0.15 0.14 0.10 0.04 0.01 0.01 0.00 0.00 0.00 0.00 0.00 0.00 0.00 0.00
0.00 0.00 0.00 0.04 0.12 0.19 0.19 0.17 0.11 0.03 0.00 0.00 0.00 0.00 0.00 0.00 0.00 0.00 0.00 0.00 0.00 0.00
0.00 0.02 0.10 0.20 0.21 0.15 0.07 0.01 0.00 0.00 0.00 0.00 0.00 0.00 0.00 0.00 0.00 0.00 0.00 0.00 0.00 0.00
0.11 0.23 0.21 0.11 0.02 0.00 0.00 0.00 0.00 0.00 0.00 0.00 0.00 0.00 0.00 0.00 0.00 0.00 0.00 0.00 0.00 0.00
0.13 0.02 0.00 0.00 0.00 0.00 0.00 0.00 0.00 0.00 0.00 0.00 0.00 0.00 0.00 0.00 0.00 0.00 0.00 0.00 0.00 0.00